Time,TemperatureF,DewpointF,PressureIn,WindDirection,WindDirectionDegrees,WindSpeedMPH,WindSpeedGustMPH,Humidity,HourlyPrecipIn,Conditions,Clouds,dailyrainin,SolarRadiationWatts/m^2,SoftwareType,DateUTC
2013-05-08 00:01:00,58.6,54.1,30.13,SE,126,0.0,1.0,85,0.00,,---,0.00,0.00,VWS V14.01,2013-05-08 04:01:00,
2013-05-08 00:06:00,58.5,54.3,30.13,SE,127,0.0,2.0,86,0.00,,---,0.00,0.00,VWS V14.01,2013-05-08 04:06:00,
2013-05-08 00:11:00,58.5,54.3,30.14,SE,127,0.0,2.0,86,0.00,,---,0.00,0.00,VWS V14.01,2013-05-08 04:11:00,
2013-05-08 00:16:00,58.5,54.3,30.14,SE,127,0.0,0.0,86,0.00,,---,0.00,0.00,VWS V14.01,2013-05-08 04:16:00,
2013-05-08 00:21:00,58.5,54.3,30.13,SE,127,0.0,2.0,86,0.00,,---,0.00,0.00,VWS V14.01,2013-05-08 04:21:00,
2013-05-08 00:26:00,58.2,54.0,30.14,SE,127,0.0,2.0,86,0.00,,---,0.00,0.00,VWS V14.01,2013-05-08 04:26:00,
2013-05-08 00:31:00,58.0,54.5,30.14,SE,127,0.0,2.0,88,0.00,,---,0.00,0.00,VWS V14.01,2013-05-08 04:31:00,
2013-05-08 00:36:00,57.4,53.9,30.14,SE,127,0.0,0.0,88,0.00,,---,0.00,0.00,VWS V14.01,2013-05-08 04:36:00,
2013-05-08 00:41:00,57.2,53.7,30.14,SE,127,0.0,0.0,88,0.00,,---,0.00,0.00,VWS V14.01,2013-05-08 04:41:00,
2013-05-08 00:46:00,57.4,54.2,30.14,SE,127,0.0,0.0,89,0.00,,---,0.00,0.00,VWS V14.01,2013-05-08 04:46:00,
2013-05-08 00:51:00,57.5,54.3,30.14,SE,127,0.0,0.0,89,0.00,,---,0.00,0.00,VWS V14.01,2013-05-08 04:51:00,
2013-05-08 00:56:00,57.4,54.2,30.14,SE,127,0.0,0.0,89,0.00,,---,0.00,0.00,VWS V14.01,2013-05-08 04:56:00,
2013-05-08 01:01:00,57.4,53.9,30.14,SE,127,0.0,0.0,88,0.00,,---,0.00,0.00,VWS V14.01,2013-05-08 05:01:00,
2013-05-08 01:06:00,56.9,53.7,30.14,SE,127,0.0,0.0,89,0.00,,---,0.00,0.00,VWS V14.01,2013-05-08 05:06:00,
2013-05-08 01:11:00,56.9,53.7,30.14,SE,127,0.0,0.0,89,0.00,,---,0.00,0.00,VWS V14.01,2013-05-08 05:11:00,
2013-05-08 01:16:00,56.9,54.0,30.14,SE,127,0.0,0.0,90,0.00,,---,0.00,0.00,VWS V14.01,2013-05-08 05:16:00,
2013-05-08 01:21:00,56.9,54.0,30.14,SE,127,0.0,0.0,90,0.00,,---,0.00,0.00,VWS V14.01,2013-05-08 05:21:00,
2013-05-08 01:26:00,56.9,54.0,30.13,SE,127,0.0,0.0,90,0.00,,---,0.00,0.00,VWS V14.01,2013-05-08 05:26:00,
2013-05-08 01:31:00,57.1,54.2,30.13,SE,127,0.0,0.0,90,0.00,,---,0.00,0.00,VWS V14.01,2013-05-08 05:31:00,
2013-05-08 01:36:00,56.8,53.6,30.13,SE,127,0.0,0.0,89,0.00,,---,0.00,0.00,VWS V14.01,2013-05-08 05:36:00,
2013-05-08 01:41:00,56.4,53.5,30.13,SE,127,0.0,0.0,90,0.00,,---,0.00,0.00,VWS V14.01,2013-05-08 05:41:00,
2013-05-08 01:46:00,55.9,53.0,30.13,SE,127,0.0,0.0,90,0.00,,---,0.00,0.00,VWS V14.01,2013-05-08 05:46:00,
2013-05-08 01:51:00,55.9,53.3,30.13,SE,127,0.0,0.0,91,0.00,,---,0.00,0.00,VWS V14.01,2013-05-08 05:51:00,
2013-05-08 01:56:00,55.8,53.2,30.13,SE,127,0.0,0.0,91,0.00,,---,0.00,0.00,VWS V14.01,2013-05-08 05:56:00,
2013-05-08 02:01:00,56.1,53.8,30.13,SE,127,0.0,0.0,92,0.00,,---,0.00,0.00,VWS V14.01,2013-05-08 06:01:00,
2013-05-08 02:06:00,56.2,53.6,30.13,SE,127,0.0,0.0,91,0.00,,---,0.00,0.00,VWS V14.01,2013-05-08 06:06:00,
2013-05-08 02:11:00,56.1,53.5,30.13,SE,127,0.0,0.0,91,0.00,,---,0.00,0.00,VWS V14.01,2013-05-08 06:11:00,
2013-05-08 02:16:00,55.9,53.3,30.12,SE,127,0.0,0.0,91,0.00,,---,0.00,0.00,VWS V14.01,2013-05-08 06:16:00,
2013-05-08 02:21:00,55.8,53.2,30.12,SE,127,0.0,0.0,91,0.00,,---,0.00,0.00,VWS V14.01,2013-05-08 06:21:00,
2013-05-08 02:26:00,55.9,53.6,30.13,SE,127,0.0,0.0,92,0.00,,---,0.00,0.00,VWS V14.01,2013-05-08 06:26:00,
2013-05-08 02:31:00,55.9,53.6,30.12,SE,127,0.0,0.0,92,0.00,,---,0.00,0.00,VWS V14.01,2013-05-08 06:31:00,
2013-05-08 02:36:00,55.8,53.5,30.13,SE,127,0.0,0.0,92,0.00,,---,0.00,0.00,VWS V14.01,2013-05-08 06:36:00,
2013-05-08 02:41:00,55.5,52.9,30.13,SE,127,0.0,0.0,91,0.00,,---,0.00,0.00,VWS V14.01,2013-05-08 06:41:00,
2013-05-08 02:46:00,55.0,52.7,30.13,SE,127,0.0,0.0,92,0.00,,---,0.00,0.00,VWS V14.01,2013-05-08 06:46:00,
2013-05-08 02:51:00,54.7,52.4,30.13,SE,127,0.0,0.0,92,0.00,,---,0.00,0.00,VWS V14.01,2013-05-08 06:51:00,
2013-05-08 02:56:00,54.6,52.3,30.13,SE,127,0.0,0.0,92,0.00,,---,0.00,0.00,VWS V14.01,2013-05-08 06:56:00,
2013-05-08 03:01:00,54.4,52.4,30.13,SE,127,0.0,0.0,93,0.00,,---,0.00,0.00,VWS V14.01,2013-05-08 07:01:00,
2013-05-08 03:06:00,54.3,52.3,30.13,SE,127,0.0,0.0,93,0.00,,---,0.00,0.00,VWS V14.01,2013-05-08 07:06:00,
2013-05-08 03:11:00,54.3,52.3,30.13,SE,127,0.0,0.0,93,0.00,,---,0.00,0.00,VWS V14.01,2013-05-08 07:11:00,
2013-05-08 03:16:00,54.3,52.3,30.13,SE,127,0.0,0.0,93,0.00,,---,0.00,0.00,VWS V14.01,2013-05-08 07:16:00,
2013-05-08 03:21:00,54.0,52.0,30.13,SE,127,0.0,0.0,93,0.00,,---,0.00,0.00,VWS V14.01,2013-05-08 07:21:00,
2013-05-08 03:26:00,54.0,52.0,30.13,SE,127,0.0,0.0,93,0.00,,---,0.00,0.00,VWS V14.01,2013-05-08 07:26:00,
2013-05-08 03:31:00,53.7,51.7,30.13,SE,127,0.0,0.0,93,0.00,,---,0.00,0.00,VWS V14.01,2013-05-08 07:31:00,
2013-05-08 03:36:00,53.5,51.8,30.13,SE,127,0.0,0.0,94,0.00,,---,0.00,0.00,VWS V14.01,2013-05-08 07:36:00,
2013-05-08 03:41:00,53.4,51.7,30.13,SE,127,0.0,0.0,94,0.00,,---,0.00,0.00,VWS V14.01,2013-05-08 07:41:00,
2013-05-08 03:46:00,53.1,51.4,30.13,SE,127,0.0,0.0,94,0.00,,---,0.00,0.00,VWS V14.01,2013-05-08 07:46:00,
2013-05-08 03:51:00,53.1,51.7,30.13,SE,127,0.0,0.0,95,0.00,,---,0.00,0.00,VWS V14.01,2013-05-08 07:51:00,
2013-05-08 03:56:00,52.8,51.4,30.13,SE,127,0.0,0.0,95,0.00,,---,0.00,0.00,VWS V14.01,2013-05-08 07:56:00,
2013-05-08 04:01:00,52.8,51.4,30.13,SE,127,0.0,0.0,95,0.00,,---,0.00,0.00,VWS V14.01,2013-05-08 08:01:00,
2013-05-08 04:07:00,52.7,51.3,30.13,SE,127,0.0,0.0,95,0.00,,---,0.00,0.00,VWS V14.01,2013-05-08 08:07:00,
2013-05-08 04:12:00,52.5,51.4,30.13,SE,127,0.0,0.0,96,0.00,,---,0.00,0.00,VWS V14.01,2013-05-08 08:12:00,
2013-05-08 04:17:00,52.4,51.3,30.13,SE,127,0.0,0.0,96,0.00,,---,0.00,0.00,VWS V14.01,2013-05-08 08:17:00,
2013-05-08 04:22:00,52.4,51.3,30.14,SE,127,0.0,0.0,96,0.00,,---,0.00,0.00,VWS V14.01,2013-05-08 08:22:00,
2013-05-08 04:27:00,52.2,51.1,30.14,SE,127,0.0,0.0,96,0.00,,---,0.00,0.00,VWS V14.01,2013-05-08 08:27:00,
2013-05-08 04:32:00,52.1,51.0,30.14,SE,127,0.0,0.0,96,0.00,,---,0.00,0.00,VWS V14.01,2013-05-08 08:32:00,
2013-05-08 04:37:00,52.2,51.1,30.14,SE,127,0.0,0.0,96,0.00,,---,0.00,0.00,VWS V14.01,2013-05-08 08:37:00,
2013-05-08 04:42:00,52.1,51.0,30.14,SE,127,0.0,0.0,96,0.00,,---,0.00,0.00,VWS V14.01,2013-05-08 08:42:00,
2013-05-08 04:47:00,52.1,51.0,30.14,SE,127,0.0,0.0,96,0.00,,---,0.00,0.00,VWS V14.01,2013-05-08 08:47:00,
2013-05-08 04:52:00,52.2,51.1,30.14,SE,127,0.0,0.0,96,0.00,,---,0.00,0.00,VWS V14.01,2013-05-08 08:52:00,
2013-05-08 04:57:00,52.2,51.1,30.14,SE,127,0.0,0.0,96,0.00,,---,0.00,0.00,VWS V14.01,2013-05-08 08:57:00,
2013-05-08 05:02:00,52.1,51.0,30.14,SE,127,0.0,0.0,96,0.00,,---,0.00,0.00,VWS V14.01,2013-05-08 09:02:00,
2013-05-08 05:07:00,51.9,50.8,30.14,SE,127,0.0,0.0,96,0.00,,---,0.00,0.00,VWS V14.01,2013-05-08 09:07:00,
2013-05-08 05:12:00,51.8,50.7,30.14,SE,127,0.0,0.0,96,0.00,,---,0.00,0.00,VWS V14.01,2013-05-08 09:12:00,
2013-05-08 05:17:00,51.6,50.5,30.14,SE,127,0.0,0.0,96,0.00,,---,0.00,0.00,VWS V14.01,2013-05-08 09:17:00,
2013-05-08 05:22:00,51.6,50.5,30.14,SE,127,0.0,0.0,96,0.00,,---,0.00,0.00,VWS V14.01,2013-05-08 09:22:00,
2013-05-08 05:27:00,51.6,50.8,30.14,SE,127,0.0,0.0,97,0.00,,---,0.00,0.00,VWS V14.01,2013-05-08 09:27:00,
2013-05-08 05:32:00,51.6,50.8,30.14,SE,127,0.0,0.0,97,0.00,,---,0.00,0.00,VWS V14.01,2013-05-08 09:32:00,
2013-05-08 05:37:00,51.5,50.7,30.14,SE,127,0.0,0.0,97,0.00,,---,0.00,5.00,VWS V14.01,2013-05-08 09:37:00,
2013-05-08 05:42:00,51.2,50.4,30.15,SE,127,0.0,0.0,97,0.00,,---,0.00,7.00,VWS V14.01,2013-05-08 09:42:00,
2013-05-08 05:47:00,51.2,50.4,30.15,SE,127,0.0,0.0,97,0.00,,---,0.00,9.00,VWS V14.01,2013-05-08 09:47:00,
2013-05-08 05:52:00,51.2,50.4,30.15,SE,127,0.0,0.0,97,0.00,,---,0.00,12.00,VWS V14.01,2013-05-08 09:52:00,
2013-05-08 05:57:00,51.2,50.4,30.15,SE,127,0.0,0.0,97,0.00,,---,0.00,14.00,VWS V14.01,2013-05-08 09:57:00,
2013-05-08 06:02:00,51.2,50.4,30.15,SE,127,0.0,0.0,97,0.00,,---,0.00,18.00,VWS V14.01,2013-05-08 10:02:00,
2013-05-08 06:07:00,51.2,50.4,30.15,SE,127,0.0,0.0,97,0.00,,---,0.00,21.00,VWS V14.01,2013-05-08 10:07:00,
2013-05-08 06:12:00,51.2,50.4,30.15,SE,127,0.0,0.0,97,0.00,,---,0.00,23.00,VWS V14.01,2013-05-08 10:12:00,
2013-05-08 06:17:00,51.0,50.2,30.16,SE,129,0.0,0.0,97,0.00,,---,0.00,28.00,VWS V14.01,2013-05-08 10:17:00,
2013-05-08 06:22:00,51.0,50.2,30.16,SE,129,0.0,0.0,97,0.00,,---,0.00,30.00,VWS V14.01,2013-05-08 10:22:00,
2013-05-08 06:27:00,51.0,50.2,30.16,SE,129,0.0,0.0,97,0.00,,---,0.00,33.00,VWS V14.01,2013-05-08 10:27:00,
2013-05-08 06:32:00,51.2,50.4,30.16,SE,129,0.0,0.0,97,0.00,,---,0.00,35.00,VWS V14.01,2013-05-08 10:32:00,
2013-05-08 06:37:00,51.5,50.7,30.16,SE,129,0.0,0.0,97,0.00,,---,0.00,37.00,VWS V14.01,2013-05-08 10:37:00,
2013-05-08 06:42:00,51.9,51.1,30.16,SE,129,0.0,0.0,97,0.00,,---,0.00,47.00,VWS V14.01,2013-05-08 10:42:00,
2013-05-08 06:47:00,52.2,51.4,30.16,SE,129,0.0,0.0,97,0.00,,---,0.00,40.00,VWS V14.01,2013-05-08 10:47:00,
2013-05-08 06:52:00,52.5,51.7,30.16,SE,129,0.0,0.0,97,0.00,,---,0.00,65.00,VWS V14.01,2013-05-08 10:52:00,
2013-05-08 06:57:00,52.7,51.9,30.17,SE,129,0.0,0.0,97,0.00,,---,0.00,65.00,VWS V14.01,2013-05-08 10:57:00,
2013-05-08 07:02:00,52.8,52.0,30.16,SE,129,0.0,0.0,97,0.00,,---,0.00,58.00,VWS V14.01,2013-05-08 11:02:00,
2013-05-08 07:07:00,53.0,52.2,30.16,SE,129,0.0,0.0,97,0.00,,---,0.00,49.00,VWS V14.01,2013-05-08 11:07:00,
2013-05-08 07:12:00,53.1,52.0,30.17,SE,129,0.0,0.0,96,0.00,,---,0.00,51.00,VWS V14.01,2013-05-08 11:12:00,
2013-05-08 07:17:00,53.4,52.3,30.17,SE,129,0.0,0.0,96,0.00,,---,0.00,56.00,VWS V14.01,2013-05-08 11:17:00,
2013-05-08 07:22:00,53.8,52.7,30.17,SE,129,0.0,0.0,96,0.00,,---,0.00,60.00,VWS V14.01,2013-05-08 11:22:00,
2013-05-08 07:27:00,54.3,53.2,30.17,SE,129,0.0,0.0,96,0.00,,---,0.00,58.00,VWS V14.01,2013-05-08 11:27:00,
2013-05-08 07:32:00,55.0,53.9,30.17,SE,129,0.0,0.0,96,0.00,,---,0.00,65.00,VWS V14.01,2013-05-08 11:32:00,
2013-05-08 07:37:00,55.8,54.1,30.17,SE,129,0.0,0.0,94,0.00,,---,0.00,69.00,VWS V14.01,2013-05-08 11:37:00,
2013-05-08 07:42:00,56.2,54.2,30.17,SE,129,0.0,0.0,93,0.00,,---,0.00,72.00,VWS V14.01,2013-05-08 11:42:00,
2013-05-08 07:47:00,56.4,54.1,30.17,SE,129,0.0,0.0,92,0.00,,---,0.00,77.00,VWS V14.01,2013-05-08 11:47:00,
2013-05-08 07:52:00,56.6,54.0,30.18,SE,129,0.0,0.0,91,0.00,,---,0.00,95.00,VWS V14.01,2013-05-08 11:52:00,
2013-05-08 07:57:00,57.1,54.5,30.18,SE,129,0.0,0.0,91,0.00,,---,0.00,107.00,VWS V14.01,2013-05-08 11:57:00,
2013-05-08 08:02:00,57.4,54.5,30.18,SE,129,0.0,0.0,90,0.00,,---,0.00,139.00,VWS V14.01,2013-05-08 12:02:00,
2013-05-08 08:07:00,58.0,54.8,30.18,SE,129,0.0,0.0,89,0.00,,---,0.00,287.00,VWS V14.01,2013-05-08 12:07:00,
2013-05-08 08:12:00,58.8,55.3,30.18,SE,129,0.0,0.0,88,0.00,,---,0.00,308.00,VWS V14.01,2013-05-08 12:12:00,
2013-05-08 08:17:00,59.8,55.3,30.18,SE,129,0.0,0.0,85,0.00,,---,0.00,390.00,VWS V14.01,2013-05-08 12:17:00,
2013-05-08 08:22:00,60.9,55.4,30.18,SE,129,0.0,0.0,82,0.00,,---,0.00,431.00,VWS V14.01,2013-05-08 12:22:00,
2013-05-08 08:27:00,61.9,56.3,30.19,SE,129,0.0,0.0,82,0.00,,---,0.00,439.00,VWS V14.01,2013-05-08 12:27:00,
2013-05-08 08:32:00,62.6,56.3,30.18,SE,129,0.0,0.0,80,0.00,,---,0.00,431.00,VWS V14.01,2013-05-08 12:32:00,
2013-05-08 08:37:00,63.6,55.5,30.19,SE,129,0.0,0.0,75,0.00,,---,0.00,452.00,VWS V14.01,2013-05-08 12:37:00,
2013-05-08 08:42:00,64.6,56.1,30.19,SE,129,0.0,0.0,74,0.00,,---,0.00,434.00,VWS V14.01,2013-05-08 12:42:00,
2013-05-08 08:47:00,65.4,56.5,30.19,SSW,211,0.0,0.0,73,0.00,,---,0.00,476.00,VWS V14.01,2013-05-08 12:47:00,
2013-05-08 08:52:00,65.7,56.0,30.18,East,79,0.0,3.0,71,0.00,,---,0.00,522.00,VWS V14.01,2013-05-08 12:52:00,
2013-05-08 08:57:00,66.2,56.1,30.19,WSW,252,0.0,3.0,70,0.00,,---,0.00,297.00,VWS V14.01,2013-05-08 12:57:00,
2013-05-08 09:02:00,66.3,55.8,30.19,South,180,0.0,0.0,69,0.00,,---,0.00,496.00,VWS V14.01,2013-05-08 13:02:00,
2013-05-08 09:07:00,66.7,56.6,30.19,South,182,0.0,0.0,70,0.00,,---,0.00,452.00,VWS V14.01,2013-05-08 13:07:00,
2013-05-08 09:12:00,67.2,55.9,30.18,SSW,206,2.0,5.0,67,0.00,,---,0.00,608.00,VWS V14.01,2013-05-08 13:12:00,
2013-05-08 09:17:00,67.7,56.0,30.18,West,270,0.0,0.0,66,0.00,,---,0.00,613.00,VWS V14.01,2013-05-08 13:17:00,
2013-05-08 09:22:00,67.5,55.3,30.18,East,89,1.0,7.0,65,0.00,,---,0.00,601.00,VWS V14.01,2013-05-08 13:22:00,
2013-05-08 09:27:00,67.5,55.8,30.18,SE,144,4.0,7.0,66,0.00,,---,0.00,573.00,VWS V14.01,2013-05-08 13:27:00,
2013-05-08 09:32:00,68.0,55.8,30.18,SSE,163,5.0,5.0,65,0.00,,---,0.00,629.00,VWS V14.01,2013-05-08 13:32:00,
2013-05-08 09:37:00,68.5,55.9,30.17,ESE,117,2.0,5.0,64,0.00,,---,0.00,116.00,VWS V14.01,2013-05-08 13:37:00,
2013-05-08 09:42:00,68.2,56.8,30.17,SE,133,1.0,5.0,67,0.00,,---,0.00,657.00,VWS V14.01,2013-05-08 13:42:00,
2013-05-08 09:47:00,68.5,56.3,30.17,SE,124,0.0,2.0,65,0.00,,---,0.00,729.00,VWS V14.01,2013-05-08 13:47:00,
2013-05-08 09:52:00,69.3,55.7,30.17,SE,128,0.0,4.0,62,0.00,,---,0.00,770.00,VWS V14.01,2013-05-08 13:52:00,
2013-05-08 09:57:00,69.3,56.6,30.17,ENE,70,2.0,5.0,64,0.00,,---,0.00,786.00,VWS V14.01,2013-05-08 13:57:00,
2013-05-08 10:02:00,69.2,56.1,30.17,ESE,105,4.0,9.0,63,0.00,,---,0.00,826.00,VWS V14.01,2013-05-08 14:02:00,
2013-05-08 10:07:00,68.5,55.0,30.17,East,101,4.0,9.0,62,0.00,,---,0.00,171.00,VWS V14.01,2013-05-08 14:07:00,
2013-05-08 10:12:00,68.5,55.9,30.17,ESE,109,3.0,9.0,64,0.00,,---,0.00,851.00,VWS V14.01,2013-05-08 14:12:00,
2013-05-08 10:17:00,68.7,55.2,30.17,South,175,8.0,8.0,62,0.00,,---,0.00,861.00,VWS V14.01,2013-05-08 14:17:00,
2013-05-08 10:22:00,68.5,55.0,30.17,ESE,112,4.0,8.0,62,0.00,,---,0.00,174.00,VWS V14.01,2013-05-08 14:22:00,
2013-05-08 10:27:00,68.5,55.9,30.17,South,190,0.0,8.0,64,0.00,,---,0.00,264.00,VWS V14.01,2013-05-08 14:27:00,
2013-05-08 10:32:00,68.5,55.4,30.17,SSW,209,4.0,4.0,63,0.00,,---,0.00,211.00,VWS V14.01,2013-05-08 14:32:00,
2013-05-08 10:37:00,69.3,55.7,30.17,SSE,165,4.0,4.0,62,0.00,,---,0.00,1023.00,VWS V14.01,2013-05-08 14:37:00,
2013-05-08 10:42:00,69.3,56.2,30.17,SE,135,3.0,6.0,63,0.00,,---,0.00,308.00,VWS V14.01,2013-05-08 14:42:00,
2013-05-08 10:47:00,69.8,55.8,30.17,West,263,0.0,5.0,61,0.00,,---,0.00,271.00,VWS V14.01,2013-05-08 14:47:00,
2013-05-08 10:52:00,70.0,56.0,30.17,SE,132,0.0,10.0,61,0.00,,---,0.00,216.00,VWS V14.01,2013-05-08 14:52:00,
2013-05-08 10:57:00,69.3,54.4,30.17,East,87,0.0,10.0,59,0.00,,---,0.00,990.00,VWS V14.01,2013-05-08 14:57:00,
2013-05-08 11:02:00,70.5,56.0,30.17,ESE,103,4.0,7.0,60,0.00,,---,0.00,192.00,VWS V14.01,2013-05-08 15:02:00,
2013-05-08 11:07:00,70.3,55.3,30.17,SE,145,5.0,8.0,59,0.00,,---,0.00,1148.00,VWS V14.01,2013-05-08 15:07:00,
2013-05-08 11:12:00,70.3,55.3,30.17,SSE,152,0.0,14.0,59,0.00,,---,0.00,738.00,VWS V14.01,2013-05-08 15:12:00,
2013-05-08 11:17:00,70.3,55.8,30.16,SE,125,1.0,3.0,60,0.00,,---,0.00,264.00,VWS V14.01,2013-05-08 15:17:00,
2013-05-08 11:22:00,69.8,55.3,30.16,South,187,0.0,8.0,60,0.00,,---,0.00,174.00,VWS V14.01,2013-05-08 15:22:00,
2013-05-08 11:27:00,69.7,55.2,30.17,SE,138,4.0,8.0,60,0.00,,---,0.00,134.00,VWS V14.01,2013-05-08 15:27:00,
2013-05-08 11:32:00,69.2,55.2,30.17,SSE,159,0.0,5.0,61,0.00,,---,0.00,162.00,VWS V14.01,2013-05-08 15:32:00,
2013-05-08 11:37:00,69.0,55.9,30.17,SSE,153,0.0,10.0,63,0.00,,---,0.00,367.00,VWS V14.01,2013-05-08 15:37:00,
2013-05-08 11:42:00,69.3,56.2,30.16,SSE,149,3.0,10.0,63,0.00,,---,0.00,283.00,VWS V14.01,2013-05-08 15:42:00,
2013-05-08 11:47:00,69.3,56.2,30.16,SSE,148,0.0,5.0,63,0.00,,---,0.00,181.00,VWS V14.01,2013-05-08 15:47:00,
2013-05-08 11:52:00,68.8,56.6,30.16,SSE,156,6.0,7.0,65,0.00,,---,0.00,241.00,VWS V14.01,2013-05-08 15:52:00,
2013-05-08 11:57:00,68.7,56.0,30.16,ESE,111,1.0,8.0,64,0.00,,---,0.00,309.00,VWS V14.01,2013-05-08 15:57:00,
2013-05-08 12:02:00,69.0,56.3,30.16,SSE,166,0.0,8.0,64,0.00,,---,0.00,302.00,VWS V14.01,2013-05-08 16:02:00,
2013-05-08 12:07:00,69.2,56.5,30.16,ESE,113,7.0,8.0,64,0.00,,---,0.00,299.00,VWS V14.01,2013-05-08 16:07:00,
2013-05-08 12:12:00,69.2,56.1,30.16,SSE,154,1.0,8.0,63,0.00,,---,0.00,227.00,VWS V14.01,2013-05-08 16:12:00,
2013-05-08 12:17:00,69.2,57.0,30.15,East,89,2.0,9.0,65,0.00,,---,0.00,250.00,VWS V14.01,2013-05-08 16:17:00,
2013-05-08 12:22:00,69.2,57.0,30.15,SE,143,10.0,10.0,65,0.00,,---,0.00,476.00,VWS V14.01,2013-05-08 16:22:00,
2013-05-08 12:27:00,69.7,57.4,30.15,ESE,123,2.0,10.0,65,0.00,,---,0.00,446.00,VWS V14.01,2013-05-08 16:27:00,
2013-05-08 12:32:00,69.8,56.7,30.15,SSE,167,8.0,8.0,63,0.00,,---,0.00,403.00,VWS V14.01,2013-05-08 16:32:00,
2013-05-08 12:37:00,70.5,56.9,30.14,SSE,148,6.0,8.0,62,0.00,,---,0.00,454.00,VWS V14.01,2013-05-08 16:37:00,
2013-05-08 12:43:00,70.7,57.1,30.14,SE,134,8.0,8.0,62,0.00,,---,0.00,223.00,VWS V14.01,2013-05-08 16:43:00,
2013-05-08 12:48:00,70.0,56.8,30.14,SSE,155,8.0,8.0,63,0.00,,---,0.00,425.00,VWS V14.01,2013-05-08 16:48:00,
2013-05-08 12:53:00,69.8,56.7,30.14,ESE,106,9.0,10.0,63,0.00,,---,0.00,339.00,VWS V14.01,2013-05-08 16:53:00,
2013-05-08 12:58:00,69.8,57.1,30.14,ESE,119,1.0,10.0,64,0.00,,---,0.00,355.00,VWS V14.01,2013-05-08 16:58:00,
2013-05-08 13:03:00,70.2,57.5,30.14,SE,138,7.0,7.0,64,0.00,,---,0.00,719.00,VWS V14.01,2013-05-08 17:03:00,
2013-05-08 13:08:00,71.2,57.1,30.14,SE,133,4.0,12.0,61,0.00,,---,0.00,719.00,VWS V14.01,2013-05-08 17:08:00,
2013-05-08 13:13:00,72.4,58.2,30.14,ESE,113,2.0,12.0,61,0.00,,---,0.00,329.00,VWS V14.01,2013-05-08 17:13:00,
2013-05-08 13:18:00,71.7,57.5,30.14,East,85,5.0,9.0,61,0.00,,---,0.00,128.00,VWS V14.01,2013-05-08 17:18:00,
2013-05-08 13:23:00,70.5,56.9,30.14,SE,140,7.0,13.0,62,0.00,,---,0.00,123.00,VWS V14.01,2013-05-08 17:23:00,
2013-05-08 13:28:00,69.7,57.0,30.14,South,187,0.0,13.0,64,0.00,,---,0.00,141.00,VWS V14.01,2013-05-08 17:28:00,
2013-05-08 13:33:00,69.2,56.5,30.14,SE,134,3.0,9.0,64,0.00,,---,0.00,232.00,VWS V14.01,2013-05-08 17:33:00,
2013-05-08 13:38:00,70.3,57.1,30.13,SSE,158,6.0,10.0,63,0.00,,---,0.00,1104.00,VWS V14.01,2013-05-08 17:38:00,
2013-05-08 13:43:00,71.5,56.4,30.14,ESE,115,8.0,11.0,59,0.00,,---,0.00,248.00,VWS V14.01,2013-05-08 17:43:00,
2013-05-08 13:48:00,70.8,59.7,30.13,SE,135,7.0,7.0,68,0.00,,---,0.00,297.00,VWS V14.01,2013-05-08 17:48:00,
2013-05-08 13:53:00,71.5,56.0,30.13,ESE,122,13.0,15.0,58,0.00,,---,0.00,923.00,VWS V14.01,2013-05-08 17:53:00,
2013-05-08 13:58:00,72.2,57.6,30.13,East,83,9.0,15.0,60,0.00,,---,0.00,274.00,VWS V14.01,2013-05-08 17:58:00,
2013-05-08 14:03:00,71.5,56.9,30.13,SE,126,0.0,11.0,60,0.00,,---,0.00,320.00,VWS V14.01,2013-05-08 18:03:00,
2013-05-08 14:08:00,71.0,57.3,30.13,East,99,4.0,16.0,62,0.00,,---,0.00,294.00,VWS V14.01,2013-05-08 18:08:00,
2013-05-08 14:13:00,70.7,56.6,30.13,SE,130,3.0,16.0,61,0.00,,---,0.00,445.00,VWS V14.01,2013-05-08 18:13:00,
2013-05-08 14:18:00,71.5,57.8,30.12,SE,140,8.0,8.0,62,0.00,,---,0.00,445.00,VWS V14.01,2013-05-08 18:18:00,
2013-05-08 14:23:00,71.7,57.5,30.12,SSE,163,4.0,9.0,61,0.00,,---,0.00,294.00,VWS V14.01,2013-05-08 18:23:00,
2013-05-08 14:28:00,70.7,56.6,30.12,SE,127,19.0,19.0,61,0.00,,---,0.00,142.00,VWS V14.01,2013-05-08 18:28:00,
2013-05-08 14:33:00,70.0,56.8,30.12,ESE,118,6.0,13.0,63,0.00,,---,0.00,1104.00,VWS V14.01,2013-05-08 18:33:00,
2013-05-08 14:38:00,71.5,58.3,30.12,ENE,65,6.0,15.0,63,0.00,,---,0.00,795.00,VWS V14.01,2013-05-08 18:38:00,
2013-05-08 14:43:00,71.7,56.2,30.12,SE,137,3.0,16.0,58,0.00,,---,0.00,979.00,VWS V14.01,2013-05-08 18:43:00,
2013-05-08 14:48:00,71.5,56.9,30.12,East,100,10.0,10.0,60,0.00,,---,0.00,571.00,VWS V14.01,2013-05-08 18:48:00,
2013-05-08 14:53:00,70.8,57.2,30.11,ENE,74,11.0,11.0,62,0.00,,---,0.00,269.00,VWS V14.01,2013-05-08 18:53:00,
2013-05-08 14:58:00,70.5,55.0,30.11,East,100,8.0,11.0,58,0.00,,---,0.00,172.00,VWS V14.01,2013-05-08 18:58:00,
2013-05-08 15:03:00,70.3,56.2,30.11,SSE,166,3.0,4.0,61,0.00,,---,0.00,153.00,VWS V14.01,2013-05-08 19:03:00,
2013-05-08 15:08:00,70.2,55.2,30.11,WSW,240,0.0,9.0,59,0.00,,---,0.00,260.00,VWS V14.01,2013-05-08 19:08:00,
2013-05-08 15:13:00,70.7,55.7,30.10,SE,140,1.0,9.0,59,0.00,,---,0.00,554.00,VWS V14.01,2013-05-08 19:13:00,
2013-05-08 15:18:00,71.2,54.2,30.10,ESE,103,6.0,6.0,55,0.00,,---,0.00,265.00,VWS V14.01,2013-05-08 19:18:00,
2013-05-08 15:23:00,70.7,53.8,30.10,SE,131,3.0,13.0,55,0.00,,---,0.00,265.00,VWS V14.01,2013-05-08 19:23:00,
2013-05-08 15:28:00,70.8,54.8,30.10,ESE,105,2.0,13.0,57,0.00,,---,0.00,791.00,VWS V14.01,2013-05-08 19:28:00,
2013-05-08 15:33:00,71.5,54.5,30.10,SSE,159,13.0,14.0,55,0.00,,---,0.00,471.00,VWS V14.01,2013-05-08 19:33:00,
2013-05-08 15:38:00,71.5,54.0,30.10,SSE,155,9.0,14.0,54,0.00,,---,0.00,320.00,VWS V14.01,2013-05-08 19:38:00,
2013-05-08 15:43:00,71.2,53.7,30.10,SE,140,13.0,14.0,54,0.00,,---,0.00,613.00,VWS V14.01,2013-05-08 19:43:00,
2013-05-08 15:48:00,71.2,53.7,30.10,East,99,8.0,8.0,54,0.00,,---,0.00,279.00,VWS V14.01,2013-05-08 19:48:00,
2013-05-08 15:53:00,71.0,54.0,30.10,ESE,120,5.0,11.0,55,0.00,,---,0.00,424.00,VWS V14.01,2013-05-08 19:53:00,
2013-05-08 15:58:00,70.5,54.5,30.10,SE,134,5.0,15.0,57,0.00,,---,0.00,278.00,VWS V14.01,2013-05-08 19:58:00,
2013-05-08 16:03:00,70.3,54.8,30.10,SE,132,7.0,16.0,58,0.00,,---,0.00,295.00,VWS V14.01,2013-05-08 20:03:00,
2013-05-08 16:08:00,70.0,54.1,30.10,East,94,4.0,16.0,57,0.00,,---,0.00,230.00,VWS V14.01,2013-05-08 20:08:00,
2013-05-08 16:13:00,69.7,55.7,30.10,ENE,77,5.0,16.0,61,0.00,,---,0.00,232.00,VWS V14.01,2013-05-08 20:13:00,
2013-05-08 16:18:00,69.5,55.5,30.10,SE,126,11.0,11.0,61,0.00,,---,0.00,229.00,VWS V14.01,2013-05-08 20:18:00,
2013-05-08 16:23:00,69.2,55.6,30.10,SSE,156,9.0,15.0,62,0.00,,---,0.00,246.00,VWS V14.01,2013-05-08 20:23:00,
2013-05-08 16:28:00,68.7,55.6,30.10,SSW,197,11.0,16.0,63,0.00,,---,0.00,229.00,VWS V14.01,2013-05-08 20:28:00,
2013-05-08 16:33:00,68.5,55.9,30.10,ESE,115,8.0,12.0,64,0.00,,---,0.00,236.00,VWS V14.01,2013-05-08 20:33:00,
2013-05-08 16:38:00,68.5,55.9,30.10,South,181,1.0,12.0,64,0.00,,---,0.00,213.00,VWS V14.01,2013-05-08 20:38:00,
2013-05-08 16:43:00,68.5,56.3,30.10,SSE,147,11.0,14.0,65,0.00,,---,0.00,225.00,VWS V14.01,2013-05-08 20:43:00,
2013-05-08 16:48:00,68.3,56.5,30.10,ENE,62,6.0,7.0,66,0.00,,---,0.00,216.00,VWS V14.01,2013-05-08 20:48:00,
2013-05-08 16:53:00,68.2,56.4,30.10,South,178,2.0,14.0,66,0.00,,---,0.00,130.00,VWS V14.01,2013-05-08 20:53:00,
2013-05-08 16:58:00,68.0,56.7,30.10,SSE,149,11.0,14.0,67,0.00,,---,0.00,148.00,VWS V14.01,2013-05-08 20:58:00,
2013-05-08 17:03:00,67.8,56.5,30.10,ESE,102,4.0,13.0,67,0.00,,---,0.00,128.00,VWS V14.01,2013-05-08 21:03:00,
2013-05-08 17:08:00,67.8,56.9,30.10,SE,146,8.0,13.0,68,0.00,,---,0.00,132.00,VWS V14.01,2013-05-08 21:08:00,
2013-05-08 17:13:00,67.5,56.6,30.10,ESE,113,6.0,13.0,68,0.00,,---,0.00,114.00,VWS V14.01,2013-05-08 21:13:00,
2013-05-08 17:18:00,67.3,56.4,30.10,East,89,4.0,14.0,68,0.00,,---,0.00,100.00,VWS V14.01,2013-05-08 21:18:00,
2013-05-08 17:23:00,67.2,56.7,30.10,ESE,118,8.0,14.0,69,0.00,,---,0.00,132.00,VWS V14.01,2013-05-08 21:23:00,
2013-05-08 17:28:00,67.2,56.7,30.10,SSE,161,6.0,14.0,69,0.00,,---,0.00,125.00,VWS V14.01,2013-05-08 21:28:00,
2013-05-08 17:33:00,67.2,56.3,30.10,ESE,110,1.0,7.0,68,0.00,,---,0.00,105.00,VWS V14.01,2013-05-08 21:33:00,
2013-05-08 17:38:00,66.7,56.2,30.10,SE,143,5.0,15.0,69,0.00,,---,0.00,113.00,VWS V14.01,2013-05-08 21:38:00,
2013-05-08 17:43:00,66.5,56.4,30.10,SSE,156,5.0,15.0,70,0.00,,---,0.00,77.00,VWS V14.01,2013-05-08 21:43:00,
2013-05-08 17:48:00,66.2,56.5,30.10,ESE,107,0.0,7.0,71,0.00,,---,0.00,67.00,VWS V14.01,2013-05-08 21:48:00,
2013-05-08 17:53:00,65.9,57.4,30.10,ESE,122,1.0,10.0,74,0.00,,---,0.00,53.00,VWS V14.01,2013-05-08 21:53:00,
2013-05-08 17:58:00,65.1,58.1,30.10,SE,146,6.0,10.0,78,0.00,,---,0.00,54.00,VWS V14.01,2013-05-08 21:58:00,
2013-05-08 18:03:00,64.4,58.1,30.10,East,88,4.0,5.0,80,0.00,,---,0.00,44.00,VWS V14.01,2013-05-08 22:03:00,
2013-05-08 18:08:00,63.8,57.9,30.10,SSW,196,5.0,11.0,81,0.01,,---,0.01,21.00,VWS V14.01,2013-05-08 22:08:00,
2013-05-08 18:13:00,63.1,58.5,30.10,SE,128,4.0,11.0,85,0.04,,---,0.04,35.00,VWS V14.01,2013-05-08 22:13:00,
2013-05-08 18:18:00,62.5,58.9,30.10,ESE,117,3.0,10.0,88,0.05,,---,0.05,46.00,VWS V14.01,2013-05-08 22:18:00,
2013-05-08 18:23:00,62.0,58.7,30.10,ESE,103,3.0,10.0,89,0.06,,---,0.06,54.00,VWS V14.01,2013-05-08 22:23:00,
2013-05-08 18:28:00,61.9,59.2,30.10,SE,145,5.0,10.0,91,0.08,,---,0.08,30.00,VWS V14.01,2013-05-08 22:28:00,
2013-05-08 18:33:00,61.5,58.8,30.09,East,84,4.0,8.0,91,0.09,,---,0.09,30.00,VWS V14.01,2013-05-08 22:33:00,
2013-05-08 18:38:00,61.5,59.2,30.09,SSE,150,4.0,8.0,92,0.09,,---,0.09,32.00,VWS V14.01,2013-05-08 22:38:00,
2013-05-08 18:43:00,61.4,59.4,30.09,SSE,148,4.0,8.0,93,0.09,,---,0.09,37.00,VWS V14.01,2013-05-08 22:43:00,
2013-05-08 18:49:00,61.2,59.2,30.09,SSE,155,0.0,4.0,93,0.09,,---,0.09,40.00,VWS V14.01,2013-05-08 22:49:00,
2013-05-08 18:54:00,61.2,59.5,30.09,SE,138,0.0,4.0,94,0.09,,---,0.09,26.00,VWS V14.01,2013-05-08 22:54:00,
2013-05-08 18:59:00,61.1,59.4,30.09,East,98,1.0,4.0,94,0.09,,---,0.09,18.00,VWS V14.01,2013-05-08 22:59:00,
2013-05-08 19:04:00,61.1,59.4,30.09,SSE,153,0.0,3.0,94,0.09,,---,0.09,11.00,VWS V14.01,2013-05-08 23:04:00,
2013-05-08 19:09:00,60.9,59.2,30.09,East,101,2.0,4.0,94,0.09,,---,0.09,11.00,VWS V14.01,2013-05-08 23:09:00,
2013-05-08 19:14:00,60.8,59.1,30.09,ESE,104,2.0,6.0,94,0.09,,---,0.09,14.00,VWS V14.01,2013-05-08 23:14:00,
2013-05-08 19:19:00,60.8,59.1,30.09,ESE,121,0.0,8.0,94,0.05,,---,0.09,5.00,VWS V14.01,2013-05-08 23:19:00,
2013-05-08 19:24:00,60.6,58.9,30.09,ENE,78,0.0,8.0,94,0.05,,---,0.09,0.00,VWS V14.01,2013-05-08 23:24:00,
2013-05-08 19:29:00,60.6,59.2,30.09,SSE,160,9.0,13.0,95,0.05,,---,0.09,0.00,VWS V14.01,2013-05-08 23:29:00,
2013-05-08 19:34:00,60.4,59.0,30.09,East,94,2.0,5.0,95,0.01,,---,0.09,0.00,VWS V14.01,2013-05-08 23:34:00,
2013-05-08 19:39:00,60.4,59.0,30.09,SE,141,0.0,7.0,95,0.01,,---,0.09,5.00,VWS V14.01,2013-05-08 23:39:00,
2013-05-08 19:44:00,60.4,59.0,30.09,East,83,3.0,7.0,95,0.01,,---,0.09,0.00,VWS V14.01,2013-05-08 23:44:00,
2013-05-08 19:49:00,60.3,58.9,30.09,SSE,152,0.0,2.0,95,0.00,,---,0.09,0.00,VWS V14.01,2013-05-08 23:49:00,
2013-05-08 19:54:00,60.3,58.9,30.09,ENE,65,0.0,7.0,95,0.00,,---,0.09,0.00,VWS V14.01,2013-05-08 23:54:00,
2013-05-08 19:59:00,60.1,58.7,30.09,East,97,0.0,7.0,95,0.00,,---,0.09,0.00,VWS V14.01,2013-05-08 23:59:00,
2013-05-08 20:04:00,60.1,58.7,30.09,ESE,119,0.0,3.0,95,0.00,,---,0.09,0.00,VWS V14.01,2013-05-09 00:04:00,
2013-05-08 20:09:00,60.1,58.7,30.09,SE,134,5.0,6.0,95,0.00,,---,0.09,0.00,VWS V14.01,2013-05-09 00:09:00,
2013-05-08 20:14:00,60.0,58.6,30.09,ESE,118,0.0,6.0,95,0.00,,---,0.09,0.00,VWS V14.01,2013-05-09 00:14:00,
2013-05-08 20:19:00,60.0,58.6,30.09,ESE,111,3.0,4.0,95,0.00,,---,0.09,0.00,VWS V14.01,2013-05-09 00:19:00,
2013-05-08 20:24:00,60.0,58.6,30.09,ESE,115,2.0,4.0,95,0.00,,---,0.09,0.00,VWS V14.01,2013-05-09 00:24:00,
2013-05-08 20:29:00,60.0,58.6,30.09,ESE,123,2.0,5.0,95,0.00,,---,0.09,0.00,VWS V14.01,2013-05-09 00:29:00,
2013-05-08 20:34:00,60.0,58.9,30.09,SE,129,0.0,5.0,96,0.00,,---,0.09,0.00,VWS V14.01,2013-05-09 00:34:00,
2013-05-08 20:39:00,60.0,58.9,30.09,ESE,121,1.0,5.0,96,0.00,,---,0.09,0.00,VWS V14.01,2013-05-09 00:39:00,
2013-05-08 20:44:00,60.0,58.9,30.09,East,96,2.0,7.0,96,0.00,,---,0.09,0.00,VWS V14.01,2013-05-09 00:44:00,
2013-05-08 20:49:00,60.0,58.9,30.09,ESE,110,0.0,4.0,96,0.00,,---,0.09,0.00,VWS V14.01,2013-05-09 00:49:00,
2013-05-08 20:54:00,60.0,58.9,30.09,South,180,0.0,4.0,96,0.00,,---,0.09,0.00,VWS V14.01,2013-05-09 00:54:00,
2013-05-08 20:59:00,60.0,58.9,30.08,ENE,71,0.0,4.0,96,0.00,,---,0.09,0.00,VWS V14.01,2013-05-09 00:59:00,
2013-05-08 21:04:00,60.0,58.9,30.09,East,85,3.0,4.0,96,0.00,,---,0.09,0.00,VWS V14.01,2013-05-09 01:04:00,
2013-05-08 21:09:00,60.0,58.9,30.09,SSE,147,0.0,4.0,96,0.00,,---,0.09,0.00,VWS V14.01,2013-05-09 01:09:00,
2013-05-08 21:14:00,60.0,58.9,30.09,East,90,0.0,4.0,96,0.00,,---,0.09,0.00,VWS V14.01,2013-05-09 01:14:00,
2013-05-08 21:19:00,60.0,58.9,30.09,ESE,118,0.0,4.0,96,0.00,,---,0.09,0.00,VWS V14.01,2013-05-09 01:19:00,
2013-05-08 21:24:00,60.0,58.9,30.09,SE,145,0.0,6.0,96,0.00,,---,0.09,0.00,VWS V14.01,2013-05-09 01:24:00,
2013-05-08 21:29:00,59.8,58.7,30.08,SE,145,2.0,6.0,96,0.00,,---,0.09,0.00,VWS V14.01,2013-05-09 01:29:00,
2013-05-08 21:34:00,59.8,58.7,30.09,East,94,1.0,3.0,96,0.00,,---,0.09,0.00,VWS V14.01,2013-05-09 01:34:00,
2013-05-08 21:39:00,59.8,58.7,30.08,East,84,3.0,3.0,96,0.00,,---,0.09,0.00,VWS V14.01,2013-05-09 01:39:00,
2013-05-08 21:44:00,59.7,58.6,30.08,East,89,0.0,3.0,96,0.00,,---,0.09,0.00,VWS V14.01,2013-05-09 01:44:00,
2013-05-08 21:49:00,59.7,58.6,30.08,East,90,0.0,1.0,96,0.00,,---,0.09,0.00,VWS V14.01,2013-05-09 01:49:00,
2013-05-08 21:54:00,59.7,58.6,30.08,ESE,105,0.0,3.0,96,0.00,,---,0.09,0.00,VWS V14.01,2013-05-09 01:54:00,
2013-05-08 21:59:00,59.5,58.4,30.08,ENE,74,0.0,7.0,96,0.00,,---,0.09,0.00,VWS V14.01,2013-05-09 01:59:00,
2013-05-08 22:04:00,59.7,58.6,30.08,SE,137,2.0,4.0,96,0.00,,---,0.09,0.00,VWS V14.01,2013-05-09 02:04:00,
2013-05-08 22:09:00,59.5,58.4,30.08,ESE,117,2.0,4.0,96,0.00,,---,0.09,0.00,VWS V14.01,2013-05-09 02:09:00,
2013-05-08 22:14:00,59.5,58.4,30.08,SE,130,1.0,4.0,96,0.00,,---,0.09,0.00,VWS V14.01,2013-05-09 02:14:00,
2013-05-08 22:19:00,59.5,58.4,30.08,SE,130,1.0,1.0,96,0.00,,---,0.09,0.00,VWS V14.01,2013-05-09 02:19:00,
2013-05-08 22:24:00,59.7,58.6,30.08,ENE,69,0.0,3.0,96,0.00,,---,0.09,0.00,VWS V14.01,2013-05-09 02:24:00,
2013-05-08 22:29:00,59.7,58.6,30.08,ENE,74,0.0,3.0,96,0.00,,---,0.09,0.00,VWS V14.01,2013-05-09 02:29:00,
2013-05-08 22:34:00,59.7,58.6,30.08,SSW,207,0.0,0.0,96,0.00,,---,0.09,0.00,VWS V14.01,2013-05-09 02:34:00,
2013-05-08 22:39:00,59.7,58.6,30.07,SSW,202,0.0,0.0,96,0.00,,---,0.09,0.00,VWS V14.01,2013-05-09 02:39:00,
2013-05-08 22:44:00,59.7,58.6,30.07,SSW,200,0.0,1.0,96,0.00,,---,0.09,0.00,VWS V14.01,2013-05-09 02:44:00,
2013-05-08 22:49:00,59.7,58.6,30.07,SSW,200,0.0,0.0,96,0.00,,---,0.09,0.00,VWS V14.01,2013-05-09 02:49:00,
2013-05-08 22:54:00,59.7,58.6,30.07,SSW,199,0.0,3.0,96,0.00,,---,0.09,0.00,VWS V14.01,2013-05-09 02:54:00,
2013-05-08 22:59:00,59.7,58.6,30.07,SSW,198,0.0,3.0,96,0.00,,---,0.09,0.00,VWS V14.01,2013-05-09 02:59:00,
2013-05-08 23:04:00,59.7,58.6,30.07,SSW,197,0.0,1.0,96,0.00,,---,0.09,0.00,VWS V14.01,2013-05-09 03:04:00,
2013-05-08 23:09:00,59.7,58.6,30.06,SSW,196,2.0,2.0,96,0.00,,---,0.09,0.00,VWS V14.01,2013-05-09 03:09:00,
2013-05-08 23:14:00,59.5,58.4,30.06,ESE,107,3.0,4.0,96,0.00,,---,0.09,0.00,VWS V14.01,2013-05-09 03:14:00,
2013-05-08 23:19:00,59.5,58.4,30.06,SE,136,0.0,3.0,96,0.00,,---,0.09,0.00,VWS V14.01,2013-05-09 03:19:00,
2013-05-08 23:24:00,59.5,58.4,30.06,ESE,104,0.0,3.0,96,0.00,,---,0.09,0.00,VWS V14.01,2013-05-09 03:24:00,
2013-05-08 23:30:00,59.4,58.3,30.06,SE,130,0.0,3.0,96,0.00,,---,0.09,0.00,VWS V14.01,2013-05-09 03:30:00,
2013-05-08 23:35:00,59.4,58.3,30.05,SE,130,0.0,0.0,96,0.00,,---,0.09,0.00,VWS V14.01,2013-05-09 03:35:00,
2013-05-08 23:40:00,59.4,58.3,30.05,SE,131,0.0,3.0,96,0.00,,---,0.09,0.00,VWS V14.01,2013-05-09 03:40:00,
2013-05-08 23:45:00,59.4,58.3,30.05,ESE,123,0.0,3.0,96,0.00,,---,0.09,0.00,VWS V14.01,2013-05-09 03:45:00,
2013-05-08 23:50:00,59.4,58.3,30.04,ESE,115,0.0,0.0,96,0.00,,---,0.09,0.00,VWS V14.01,2013-05-09 03:50:00,
2013-05-08 23:55:00,59.2,58.1,30.04,ESE,115,0.0,0.0,96,0.00,,---,0.09,0.00,VWS V14.01,2013-05-09 03:55:00,